Location: Newark
(34.6283°N, 36.0776°E)
Time: 06:13:18
(UTC+00:00)

Courier 1B Rocket - Pass Details

Date: 19 September 2019
Orbit: 920 x 1202 km, 28.2° (Epoch: 21 October)

Event Time Altitude Azimuth Distance (km) Brightness Sun altitude
Rises 15:55:06 0° 263° (W) 3,862 10.3 -4.4°
Reaches altitude 10° 15:58:01 10° 258° (WSW) 2,861 9.0 -5.0°
Maximum altitude 16:04:37 48° 186° (S) 1,279 5.7 -6.4°
Drops below altitude 10° 16:10:48 10° 114° (ESE) 2,678 6.7 -7.7°
Enters shadow 16:11:19 - 113° (ESE) 2,850 6.8 -7.8°
